Starlink 30772

operational
NORAD ID: 58135 Int'l Des: 2023-162 Owner: SPXS Country: US Constellation: starlink
LEOCIRCULAR

About Starlink 30772

Description loading...

Live Position

Loading 3D Globe...

Upcoming Passes

Altitude History

Altitude vs Time

uPlot chart will show altitude changes over time

Two-Line Element Set

1 58135U 23162T 25351.65488381 .00001168 00000-0 10148-3 0 9998
2 58135 43.0034 219.3618 0001148 267.5098 92.5613 15.02539104119950
Epoch: Dec 17, 2025 • Age: 20 hours

Current Status

Altitude 558.9 km
Velocity 7.59 km/s
Sub-Earth Point 20.08°N, 111.69°E
Launch Date Oct 22, 2023
Age 2.1 years
Type internet

Technical Details

Classification Payload
Mass 730.00 kg
Dry Mass 700.00 kg
Total Mass 730.00 kg
Length 0.30 m
Diameter 4.10 m
Span 29.00 m
Shape Box + pan
Manufacturer SPXS
Bus Type Starlink V2M
Phase Status In Orbit
Owner/State SPXS/US

Large Constellations

Loading constellations...